Regional Weather Roundup
Issued by NWS Mt. Holly, NJ

Home | Current Version | Previous Version | Text Only | Print | Product List | Glossary On
Versions: 1 2 3 4 5 6 7 8 9 10 11 12 13 14 15 16 17 18 19 20 21 22 23 24 25 26 27 28 29 30 31 32 33 34 35 36 37 38 39 40 41 42 43 44 45 46 47 48 49 50
000
ASUS41 KPHI 160810
RWRPHI

REGIONAL WEATHER ROUNDUP
NATIONAL WEATHER SERVICE MOUNT HOLLY NJ
400 AM EDT TUE SEP 16 2014

NOTE:  "FAIR" INDICATES FEW OR NO CLOUDS BELOW 12,000 FEET WITH NO
SIGNIFICANT WEATHER AND/OR OBSTRUCTIONS TO VISIBILITY.

 * = STATION DOES NOT REPORT PRECIPITATION (E.G. RAIN, SNOW, ETC.)
        OR FOG.

NJZ015>026-160900-
SOUTHERN NEW JERSEY

CITY           SKY/WX    TMP DP  RH WIND       PRES   REMARKS
POMONA         MOCLDY    56  54  93 CALM      30.04F
RIO GRANDE*    MOCLDY    59  54  82 CALM      30.05F
MILLVILLE      CLOUDY    59  57  93 SE3       30.03F
WRIGHTSTOWN    MOCLDY    57  54  89 E2        30.01F
MOUNT HOLLY    PTCLDY    54  52  93 CALM      30.03F
TRENTON        PTCLDY    57  52  83 CALM      30.03F

$$
NJZ001>014-160900-
NORTHERN NEW JERSEY

CITY           SKY/WX    TMP DP  RH WIND       PRES   REMARKS
SUSSEX         CLOUDY    52  49  89 CALM      30.04F
ANDOVER*         N/A     50  49  96 CALM      30.04F
MORRISTOWN     CLOUDY    52  48  87 CALM      30.05S
NEWARK         MOCLDY    60  53  77 SW5       30.05S
TETERBORO      MOCLDY    59  52  77 CALM      30.03F
CALDWELL       MOCLDY    54  50  86 CALM      30.05F
SOMERVILLE     CLOUDY    52  49  89 CALM      30.03F
ALLAIRE*       MOCLDY    57  50  77 W6        30.05S
TOMS RIVER*    CLOUDY    52  48  87 CALM      30.05F

$$
PAZ043-044-047-054-055-060>062-066>071-160900-
EASTERN PENNSYLVANIA

CITY           SKY/WX    TMP DP  RH WIND       PRES   REMARKS
PHILADELPHIA   CLOUDY    62  55  77 E7        30.02F
NORTH PHILA    MOCLDY    60  52  74 SE3       30.04F
BLUE BELL      PTCLDY    54  52  94 CALM      30.02F
DOYLESTOWN     PTCLDY    52  51  97 CALM      30.02F
QUAKERTOWN*    PTCLDY    48  48 100 CALM      30.03F
POTTSTOWN      CLOUDY    54  51  90 NE5       30.03F
LANCASTER      CLOUDY    57  53  86 NE3       30.00F
COATESVILLE    PTCLDY    55  52  88 CALM      30.02F
READING        CLOUDY    56  52  86 CALM      30.00F
ALLENTOWN      PTCLDY    51  48  89 NE3       30.02F
MOUNT POCONO   CLOUDY    55  48  77 CALM      30.03F
HAZLETON       CLOUDY    55  52  88 CALM      30.05S
WILKES BARRE   CLOUDY    56  50  80 CALM      30.02F

$$
DEZALL-MDZ008-012-015-019-020-160900-
DELAWARE AND EASTERN MARYLAND

CITY           SKY/WX    TMP DP  RH WIND       PRES   REMARKS
WILMINGTON     CLOUDY    63  59  87 S5        30.02F
DOVER          MOCLDY    59  57  91 SE7       30.00F
GEORGETOWN     MOCLDY    60  55  83 CALM      30.04F
EASTON         MOCLDY    63  63 100 CALM      30.05F
PATUXENT       LGT RAIN  66  62  87 S6        30.01F
OCEAN CITY     CLOUDY    64  59  83 CALM      30.04F
WALLOPS ISLAND LGT RAIN  67  63  87 SW7       30.04F
CAMBRIDGE      MOCLDY    61  59  94 CALM      30.01F
SALISBURY        N/A    N/A N/A N/A MISG        N/A

$$
PAZ001-021-NYZ056-072-MDZ011-DCZ001-160900-
OTHER NEARBY LOCATIONS

CITY           SKY/WX    TMP DP  RH WIND       PRES   REMARKS
HARRISBURG     MOCLDY    58  52  80 CALM      30.00F
STATE COLLEGE  CLOUDY    53  52  95 CALM      30.04R
WILLIAMSPORT   CLOUDY    56  51  84 CALM      30.01F
BINGHAMTON     LGT RAIN  52  51  97 CALM      30.03F FOG
NEW YORK CITY  MOCLDY    62  53  72 VRB5      30.07S
BALTIMORE      MOCLDY    61  59  93 W3        30.00F
WASHINGTON DC  CLOUDY    68  61  78 W3        30.01F

$$



USA.gov is the U.S. government's official web portal to all federal, state and local government web resources and services.